| time (UTC) | temp F | wind direction | speed MPH | gust MPH | rain 1hr in | rain 24hr in | rain mn in | humidity % | barometer mb |
| 20260508203004 | 59 | 271 | 0.0 | 3.0 | 0.00 | 0.01 | 0.00 | 28 | 1007.2 |
| 20260508202504 | 59 | 226 | 2.0 | 5.0 | 0.00 | 0.01 | 0.00 | 31 | 1007.3 |
| 20260508202004 | 59 | 230 | 5.0 | 10.0 | 0.00 | 0.01 | 0.00 | 29 | 1007.3 |
| 20260508201504 | 59 | 271 | 8.0 | 12.0 | 0.00 | 0.01 | 0.00 | 28 | 1007.4 |
| 20260508200504 | 60 | 202 | 3.0 | 12.0 | 0.00 | 0.01 | 0.00 | 32 | 1007.5 |
| 20260508195504 | 60 | 323 | 4.0 | 10.0 | 0.00 | 0.01 | 0.00 | 31 | 1007.6 |
| 20260508195004 | 60 | 318 | 3.0 | 8.0 | 0.00 | 0.01 | 0.00 | 32 | 1008.0 |
| 20260508194504 | 60 | 257 | 3.0 | 7.0 | 0.00 | 0.01 | 0.00 | 29 | 1008.1 |
| 20260508194004 | 60 | 248 | 3.0 | 6.0 | 0.00 | 0.01 | 0.00 | 27 | 1008.1 |
| 20260508193505 | 60 | 353 | 5.0 | 10.0 | 0.00 | 0.01 | 0.00 | 30 | 1008.0 |
| 20260508193004 | 60 | 330 | 5.0 | 12.0 | 0.00 | 0.01 | 0.00 | 31 | 1008.1 |
| 20260508192504 | 59 | 253 | 2.0 | 7.0 | 0.00 | 0.01 | 0.00 | 32 | 1008.3 |
| 20260508191505 | 59 | 232 | 7.0 | 16.0 | 0.00 | 0.01 | 0.00 | 27 | 1008.2 |
| 20260508191004 | 59 | 240 | 3.0 | 6.0 | 0.00 | 0.01 | 0.00 | 29 | 1008.5 |
| 20260508190004 | 57 | 257 | 7.0 | 13.0 | 0.00 | 0.01 | 0.00 | 31 | 1008.5 |
| 20260508185504 | 56 | 323 | 4.0 | 15.0 | 0.00 | 0.01 | 0.00 | 36 | 1008.7 |
| 20260508185005 | 56 | 274 | 7.0 | 15.0 | 0.00 | 0.01 | 0.00 | 31 | 1008.6 |
| 20260508184504 | 56 | 244 | 1.0 | 13.0 | 0.00 | 0.01 | 0.00 | 32 | 1008.7 |
| 20260508184004 | 56 | 291 | 7.0 | 12.0 | 0.00 | 0.01 | 0.00 | 35 | 1008.7 |
| 20260508183004 | 57 | 220 | 3.0 | 7.0 | 0.00 | 0.01 | 0.00 | 33 | 1008.6 |
| 20260508182504 | 56 | 309 | 5.0 | 15.0 | 0.00 | 0.01 | 0.00 | 37 | 1008.7 |
| 20260508182004 | 55 | 220 | 2.0 | 6.0 | 0.00 | 0.01 | 0.00 | 35 | 1008.8 |
| 20260508181504 | 55 | 244 | 2.0 | 7.0 | 0.00 | 0.01 | 0.00 | 36 | 1008.8 |
| 20260508180504 | 54 | 242 | 10.0 | 18.0 | 0.00 | 0.01 | 0.00 | 36 | 1008.9 |
| 20260508180004 | 54 | 230 | 9.0 | 14.0 | 0.00 | 0.01 | 0.00 | 35 | 1008.8 |
| 20260508175504 | 54 | 220 | 4.0 | 5.0 | 0.00 | 0.01 | 0.00 | 37 | 1008.9 |
| 20260508175004 | 53 | 250 | 5.0 | 12.0 | 0.00 | 0.01 | 0.00 | 37 | 1009.0 |
| 20260508174504 | 53 | 254 | 6.0 | 13.0 | 0.00 | 0.01 | 0.00 | 37 | 1008.9 |
| 20260508174004 | 52 | 260 | 6.0 | 12.0 | 0.00 | 0.01 | 0.00 | 39 | 1009.0 |
| 20260508173504 | 52 | 237 | 6.0 | 10.0 | 0.00 | 0.01 | 0.00 | 40 | 1008.9 |
| 20260508173004 | 51 | 241 | 2.0 | 6.0 | 0.00 | 0.01 | 0.00 | 43 | 1008.9 |
| 20260508172504 | 51 | 350 | 3.0 | 6.0 | 0.00 | 0.01 | 0.00 | 47 | 1008.8 |
| 20260508172004 | 51 | 70 | 1.0 | 2.0 | 0.00 | 0.01 | 0.00 | 48 | 1009.0 |
| 20260508171504 | 50 | 70 | 2.0 | 3.0 | 0.00 | 0.01 | 0.00 | 48 | 1008.9 |
| 20260508171004 | 50 | 359 | 3.0 | 5.0 | 0.00 | 0.01 | 0.00 | 53 | 1009.2 |
| 20260508170504 | 49 | 61 | 2.0 | 5.0 | 0.00 | 0.01 | 0.00 | 58 | 1009.4 |
| 20260508170004 | 49 | 193 | 0.0 | 3.0 | 0.00 | 0.01 | 0.00 | 56 | 1009.5 |
| 20260508165504 | 48 | 124 | 3.0 | 5.0 | 0.00 | 0.01 | 0.00 | 57 | 1009.5 |
| 20260508165004 | 48 | 126 | 2.0 | 3.0 | 0.00 | 0.01 | 0.00 | 58 | 1009.5 |
| 20260508163504 | 49 | 57 | 3.0 | 6.0 | 0.00 | 0.01 | 0.00 | 61 | 1009.5 |
| 20260508163004 | 48 | 119 | 2.0 | 6.0 | 0.00 | 0.01 | 0.00 | 58 | 1009.5 |
| 20260508162504 | 49 | 119 | 1.0 | 3.0 | 0.00 | 0.01 | 0.00 | 60 | 1009.5 |
| 20260508162004 | 49 | 119 | 0.0 | 3.0 | 0.00 | 0.01 | 0.00 | 62 | 1009.6 |
| 20260508161504 | 48 | 119 | 2.0 | 3.0 | 0.00 | 0.01 | 0.00 | 63 | 1009.6 |
| 20260508161004 | 48 | 119 | 0.0 | 1.0 | 0.00 | 0.01 | 0.00 | 62 | 1009.5 |
| 20260508160505 | 48 | 119 | 1.0 | 3.0 | 0.00 | 0.01 | 0.00 | 60 | 1009.6 |
| 20260508155504 | 47 | 119 | 0.0 | 1.0 | 0.00 | 0.01 | 0.00 | 62 | 1009.7 |
| 20260508155004 | 47 | 119 | 1.0 | 3.0 | 0.00 | 0.01 | 0.00 | 61 | 1009.7 |
| 20260508154004 | 48 | 119 | 1.0 | 2.0 | 0.00 | 0.01 | 0.00 | 60 | 1009.6 |
| 20260508153504 | 47 | 119 | 1.0 | 2.0 | 0.00 | 0.01 | 0.00 | 64 | 1009.6 |
| 20260508153004 | 46 | 119 | 1.0 | 2.0 | 0.00 | 0.01 | 0.00 | 67 | 1009.5 |
| 20260508152504 | 46 | 119 | 1.0 | 2.0 | 0.00 | 0.01 | 0.00 | 70 | 1009.5 |
| 20260508151504 | 45 | 119 | 2.0 | 3.0 | 0.00 | 0.01 | 0.00 | 70 | 1009.5 |
| 20260508151004 | 46 | 119 | 1.0 | 2.0 | 0.00 | 0.01 | 0.00 | 69 | 1009.4 |
| 20260508150504 | 46 | 119 | 2.0 | 3.0 | 0.00 | 0.01 | 0.00 | 69 | 1009.4 |
| 20260508150005 | 45 | 119 | 2.0 | 3.0 | 0.00 | 0.01 | 0.00 | 71 | 1009.3 |
| 20260508145504 | 45 | 119 | 1.0 | 3.0 | 0.00 | 0.01 | 0.00 | 69 | 1009.2 |
| 20260508145004 | 45 | 119 | 2.0 | 3.0 | 0.00 | 0.01 | 0.00 | 70 | 1009.3 |
| 20260508144504 | 45 | 119 | 0.0 | 1.0 | 0.00 | 0.01 | 0.00 | 69 | 1009.2 |
| 20260508144004 | 45 | 119 | 1.0 | 3.0 | 0.00 | 0.01 | 0.00 | 71 | 1009.2 |
| 20260508143505 | 44 | 119 | 2.0 | 3.0 | 0.00 | 0.01 | 0.00 | 75 | 1009.3 |
| 20260508143004 | 43 | 156 | 1.0 | 2.0 | 0.00 | 0.01 | 0.00 | 74 | 1009.3 |
| 20260508142504 | 42 | 156 | 2.0 | 3.0 | 0.00 | 0.01 | 0.00 | 74 | 1009.2 |
| 20260508141504 | 42 | 158 | 2.0 | 3.0 | 0.00 | 0.01 | 0.00 | 75 | 1009.3 |
| 20260508141004 | 42 | 219 | 1.0 | 2.0 | 0.00 | 0.01 | 0.00 | 78 | 1009.3 |
| 20260508140004 | 40 | 219 | 1.0 | 3.0 | 0.00 | 0.01 | 0.00 | 82 | 1009.5 |
| 20260508135505 | 40 | 219 | 1.0 | 3.0 | 0.00 | 0.01 | 0.00 | 83 | 1009.4 |
| 20260508135004 | 39 | 219 | 1.0 | 3.0 | 0.00 | 0.01 | 0.00 | 84 | 1009.4 |
| 20260508134504 | 39 | 219 | 5.0 | 5.0 | 0.00 | 0.01 | 0.00 | 84 | 1009.3 |
| 20260508134004 | 39 | 219 | 1.0 | 3.0 | 0.00 | 0.01 | 0.00 | 85 | 1009.4 |
| 20260508133504 | 38 | 219 | 0.0 | 0.0 | 0.00 | 0.01 | 0.00 | 86 | 1009.5 |
| 20260508133004 | 38 | 219 | 0.0 | 0.0 | 0.00 | 0.01 | 0.00 | 87 | 1009.5 |
| 20260508132504 | 38 | 219 | 0.0 | 0.0 | 0.00 | 0.01 | 0.00 | 89 | 1010.0 |
| 20260508131504 | 36 | 219 | 1.0 | 2.0 | 0.00 | 0.01 | 0.00 | 90 | 1009.8 |
| 20260508130504 | 35 | 290 | 0.0 | 0.0 | 0.00 | 0.01 | 0.00 | 91 | 1009.6 |
| 20260508130004 | 35 | 290 | 0.0 | 0.0 | 0.00 | 0.01 | 0.00 | 91 | 1009.6 |
| 20260508125504 | 35 | 290 | 1.0 | 3.0 | 0.00 | 0.01 | 0.00 | 91 | 1009.6 |
| 20260508125004 | 35 | 290 | 3.0 | 5.0 | 0.00 | 0.01 | 0.00 | 91 | 1009.6 |
| 20260508124504 | 35 | 290 | 3.0 | 5.0 | 0.00 | 0.01 | 0.00 | 91 | 1009.4 |
| 20260508124004 | 35 | 290 | 2.0 | 5.0 | 0.00 | 0.01 | 0.00 | 91 | 1009.3 |
| 20260508123504 | 35 | 290 | 3.0 | 5.0 | 0.00 | 0.01 | 0.00 | 90 | 1009.0 |
| 20260508123004 | 36 | 290 | 3.0 | 6.0 | 0.00 | 0.01 | 0.00 | 91 | 1009.0 |
| 20260508122504 | 36 | 293 | 4.0 | 7.0 | 0.00 | 0.01 | 0.00 | 90 | 1009.1 |
| 20260508121504 | 36 | 187 | 6.0 | 7.0 | 0.00 | 0.01 | 0.00 | 92 | 1009.1 |
| 20260508121004 | 36 | 150 | 6.0 | 9.0 | 0.00 | 0.01 | 0.00 | 94 | 1009.4 |
| 20260508115504 | 35 | 116 | 3.0 | 5.0 | 0.00 | 0.01 | 0.00 | 94 | 1009.5 |
| 20260508114504 | 34 | 21 | 6.0 | 14.0 | 0.00 | 0.01 | 0.00 | 95 | 1009.6 |
| 20260508114004 | 34 | 16 | 10.0 | 14.0 | 0.00 | 0.01 | 0.00 | 95 | 1009.7 |
| 20260508113504 | 34 | 27 | 10.0 | 12.0 | 0.00 | 0.01 | 0.00 | 95 | 1009.7 |
| 20260508113005 | 33 | 34 | 12.0 | 17.0 | 0.00 | 0.01 | 0.00 | 95 | 1009.8 |
| 20260508112504 | 32 | 29 | 8.0 | 12.0 | 0.00 | 0.01 | 0.00 | 95 | 1009.7 |
| 20260508112005 | 31 | 31 | 6.0 | 9.0 | 0.00 | 0.01 | 0.00 | 94 | 1009.1 |
| 20260508111004 | 31 | 346 | 1.0 | 2.0 | 0.00 | 0.01 | 0.00 | 94 | 1009.0 |
| 20260508110504 | 31 | 346 | 0.0 | 0.0 | 0.00 | 0.01 | 0.00 | 94 | 1008.8 |
| 20260508110005 | 31 | 346 | 0.0 | 0.0 | 0.00 | 0.01 | 0.00 | 94 | 1008.8 |
| 20260508105504 | 31 | 346 | 0.0 | 0.0 | 0.00 | 0.01 | 0.00 | 93 | 1008.7 |
| 20260508105004 | 31 | 346 | 0.0 | 0.0 | 0.00 | 0.01 | 0.00 | 93 | 1008.3 |
| 20260508104005 | 31 | 346 | 0.0 | 3.0 | 0.00 | 0.01 | 0.00 | 94 | 1008.3 |
| 20260508103504 | 31 | 346 | 2.0 | 3.0 | 0.00 | 0.01 | 0.00 | 94 | 1008.5 |
| 20260508103004 | 32 | 346 | 2.0 | 3.0 | 0.00 | 0.01 | 0.00 | 94 | 1008.5 |
| 20260508102504 | 32 | 203 | 3.0 | 3.0 | 0.00 | 0.01 | 0.00 | 94 | 1008.5 |
| 20260508101504 | 32 | 86 | 1.0 | 6.0 | 0.00 | 0.01 | 0.00 | 93 | 1008.5 |
| 20260508100004 | 32 | 233 | 4.0 | 6.0 | 0.00 | 0.01 | 0.00 | 94 | 1008.1 |
| 20260508095504 | 32 | 223 | 3.0 | 5.0 | 0.00 | 0.01 | 0.00 | 94 | 1007.9 |
| 20260508095004 | 32 | 310 | 2.0 | 3.0 | 0.00 | 0.01 | 0.00 | 94 | 1008.2 |
| 20260508094504 | 32 | 324 | 2.0 | 3.0 | 0.00 | 0.01 | 0.00 | 93 | 1008.0 |
| 20260508094004 | 31 | 286 | 1.0 | 3.0 | 0.00 | 0.01 | 0.00 | 93 | 1008.3 |
| 20260508093504 | 31 | 356 | 2.0 | 3.0 | 0.00 | 0.01 | 0.00 | 93 | 1008.1 |
| 20260508092504 | 32 | 352 | 3.0 | 7.0 | 0.00 | 0.01 | 0.00 | 92 | 1008.0 |
| 20260508092004 | 32 | 351 | 1.0 | 3.0 | 0.00 | 0.01 | 0.00 | 93 | 1007.8 |
| 20260508091504 | 32 | 299 | 0.0 | 0.0 | 0.00 | 0.01 | 0.00 | 93 | 1007.8 |
| 20260508091004 | 32 | 299 | 0.0 | 3.0 | 0.00 | 0.01 | 0.00 | 92 | 1007.9 |
| 20260508090504 | 32 | 299 | 0.0 | 3.0 | 0.00 | 0.01 | 0.00 | 92 | 1007.9 |
| 20260508090004 | 33 | 323 | 0.0 | 0.0 | 0.00 | 0.01 | 0.00 | 92 | 1007.9 |
| 20260508085504 | 33 | 323 | 0.0 | 0.0 | 0.00 | 0.01 | 0.00 | 92 | 1008.0 |
| 20260508085004 | 33 | 323 | 0.0 | 0.0 | 0.00 | 0.01 | 0.00 | 92 | 1008.0 |
| 20260508084504 | 33 | 323 | 0.0 | 0.0 | 0.00 | 0.01 | 0.00 | 93 | 1007.9 |
| 20260508084004 | 33 | 323 | 0.0 | 2.0 | 0.00 | 0.01 | 0.00 | 93 | 1007.9 |
| 20260508083504 | 33 | 323 | 1.0 | 8.0 | 0.00 | 0.01 | 0.00 | 92 | 1008.2 |
| 20260508083004 | 33 | 313 | 1.0 | 6.0 | 0.00 | 0.01 | 0.00 | 92 | 1008.2 |
| 20260508082004 | 34 | 346 | 0.0 | 2.0 | 0.00 | 0.01 | 0.00 | 91 | 1008.0 |
| 20260508080504 | 34 | 24 | 5.0 | 5.0 | 0.00 | 0.01 | 0.00 | 91 | 1008.3 |
| 20260508080004 | 34 | 259 | 1.0 | 2.0 | 0.00 | 0.01 | 0.00 | 92 | 1008.4 |
| 20260508075504 | 35 | 259 | 2.0 | 3.0 | 0.00 | 0.01 | 0.00 | 91 | 1008.3 |
| 20260508075004 | 35 | 259 | 1.0 | 2.0 | 0.00 | 0.01 | 0.00 | 92 | 1008.6 |
| 20260508074504 | 35 | 259 | 1.0 | 5.0 | 0.00 | 0.01 | 0.00 | 92 | 1008.5 |
| 20260508074004 | 35 | 259 | 3.0 | 6.0 | 0.00 | 0.01 | 0.00 | 91 | 1008.8 |
| 20260508073504 | 35 | 260 | 0.0 | 3.0 | 0.00 | 0.01 | 0.00 | 91 | 1008.5 |
| 20260508073004 | 35 | 260 | 3.0 | 3.0 | 0.00 | 0.01 | 0.00 | 91 | 1008.7 |
| 20260508072504 | 35 | 260 | 1.0 | 3.0 | 0.00 | 0.01 | 0.00 | 91 | 1008.7 |
| 20260508072004 | 35 | 260 | 2.0 | 3.0 | 0.00 | 0.01 | 0.00 | 91 | 1008.9 |
| 20260508071504 | 35 | 32 | 3.0 | 5.0 | 0.00 | 0.01 | 0.00 | 90 | 1008.8 |
| 20260508071003 | 35 | 260 | 1.0 | 3.0 | 0.00 | 0.01 | 0.00 | 91 | 1008.8 |
| 20260508065504 | 35 | 356 | 2.0 | 3.0 | 0.00 | 0.01 | 0.00 | 90 | 1008.8 |
| 20260508065004 | 35 | 340 | 0.0 | 0.0 | 0.00 | 0.01 | 0.00 | 90 | 1008.9 |
| 20260508064504 | 35 | 340 | 1.0 | 3.0 | 0.00 | 0.01 | 0.00 | 89 | 1008.7 |
| 20260508064004 | 35 | 340 | 3.0 | 3.0 | 0.00 | 0.01 | 0.00 | 89 | 1008.7 |
| 20260508063504 | 36 | 340 | 2.0 | 3.0 | 0.00 | 0.01 | 0.00 | 89 | 1008.7 |
| 20260508062504 | 36 | 210 | 2.0 | 3.0 | 0.00 | 0.01 | 0.00 | 88 | 1008.7 |
| 20260508062005 | 36 | 210 | 1.0 | 3.0 | 0.00 | 0.01 | 0.00 | 87 | 1008.6 |
| 20260508061504 | 37 | 210 | 2.0 | 5.0 | 0.00 | 0.01 | 0.00 | 88 | 1008.5 |
| 20260508061004 | 37 | 210 | 0.0 | 3.0 | 0.00 | 0.01 | 0.00 | 87 | 1008.4 |
| 20260508060504 | 37 | 210 | 3.0 | 3.0 | 0.00 | 0.01 | 0.00 | 86 | 1008.5 |
| 20260508060005 | 38 | 358 | 3.0 | 3.0 | 0.00 | 0.01 | 0.00 | 85 | 1008.4 |
| 20260508055504 | 38 | 342 | 2.0 | 3.0 | 0.00 | 0.01 | 0.01 | 85 | 1008.4 |
| 20260508055004 | 38 | 342 | 3.0 | 3.0 | 0.00 | 0.01 | 0.01 | 85 | 1008.4 |
| 20260508054504 | 39 | 342 | 3.0 | 7.0 | 0.00 | 0.01 | 0.01 | 84 | 1008.5 |
| 20260508054004 | 39 | 350 | 4.0 | 6.0 | 0.00 | 0.01 | 0.01 | 84 | 1008.4 |
| 20260508053504 | 39 | 252 | 5.0 | 7.0 | 0.00 | 0.01 | 0.01 | 84 | 1008.5 |
| 20260508053004 | 39 | 252 | 4.0 | 6.0 | 0.00 | 0.01 | 0.01 | 84 | 1008.6 |
| 20260508052004 | 39 | 267 | 3.0 | 5.0 | 0.01 | 0.01 | 0.01 | 84 | 1008.8 |
| 20260508051504 | 40 | 232 | 3.0 | 3.0 | 0.01 | 0.01 | 0.01 | 84 | 1009.0 |
| 20260508051004 | 40 | 232 | 3.0 | 5.0 | 0.01 | 0.01 | 0.01 | 84 | 1009.0 |
| 20260508050505 | 40 | 223 | 3.0 | 7.0 | 0.01 | 0.01 | 0.01 | 83 | 1009.0 |
| 20260508050004 | 40 | 325 | 2.0 | 3.0 | 0.01 | 0.01 | 0.01 | 83 | 1009.0 |
| 20260508045504 | 40 | 325 | 2.0 | 5.0 | 0.01 | 0.01 | 0.01 | 82 | 1009.0 |
| 20260508045004 | 40 | 309 | 2.0 | 5.0 | 0.01 | 0.01 | 0.01 | 82 | 1009.1 |
| 20260508044504 | 40 | 298 | 3.0 | 7.0 | 0.01 | 0.01 | 0.01 | 83 | 1009.6 |
| 20260508044004 | 39 | 243 | 5.0 | 7.0 | 0.01 | 0.01 | 0.01 | 84 | 1009.3 |
| 20260508043004 | 40 | 273 | 5.0 | 10.0 | 0.01 | 0.01 | 0.01 | 83 | 1008.9 |
| 20260508041504 | 40 | 240 | 3.0 | 5.0 | 0.00 | 0.00 | 0.00 | 81 | 1008.5 |
| 20260508041004 | 40 | 188 | 4.0 | 9.0 | 0.00 | 0.00 | 0.00 | 80 | 1008.3 |
| 20260508040504 | 40 | 157 | 5.0 | 6.0 | 0.00 | 0.00 | 0.00 | 79 | 1008.2 |
| 20260508040005 | 41 | 277 | 3.0 | 6.0 | 0.00 | 0.00 | 0.00 | 78 | 1008.0 |
| 20260508035504 | 41 | 314 | 2.0 | 3.0 | 0.00 | 0.00 | 0.00 | 78 | 1008.0 |
| 20260508035004 | 41 | 317 | 3.0 | 5.0 | 0.00 | 0.00 | 0.00 | 77 | 1008.0 |
| 20260508034504 | 42 | 317 | 4.0 | 5.0 | 0.00 | 0.00 | 0.00 | 77 | 1008.2 |
| 20260508033504 | 43 | 317 | 4.0 | 6.0 | 0.00 | 0.00 | 0.00 | 76 | 1008.2 |
| 20260508033005 | 43 | 317 | 3.0 | 5.0 | 0.00 | 0.00 | 0.00 | 75 | 1008.2 |
| 20260508032004 | 43 | 267 | 4.0 | 13.0 | 0.00 | 0.00 | 0.00 | 73 | 1008.6 |
| 20260508031505 | 43 | 242 | 6.0 | 13.0 | 0.00 | 0.00 | 0.00 | 74 | 1008.8 |
| 20260508031004 | 44 | 256 | 7.0 | 15.0 | 0.00 | 0.00 | 0.00 | 74 | 1008.9 |
| 20260508030504 | 44 | 295 | 13.0 | 30.0 | 0.00 | 0.00 | 0.00 | 70 | 1008.9 |
| 20260508030004 | 44 | 303 | 5.0 | 10.0 | 0.00 | 0.00 | 0.00 | 64 | 1008.2 |
| 20260508025504 | 44 | 325 | 6.0 | 7.0 | 0.00 | 0.00 | 0.00 | 63 | 1007.8 |
| 20260508024504 | 45 | 26 | 4.0 | 5.0 | 0.00 | 0.00 | 0.00 | 60 | 1007.6 |
| 20260508024004 | 46 | 34 | 2.0 | 3.0 | 0.00 | 0.00 | 0.00 | 60 | 1007.4 |
| 20260508023504 | 47 | 275 | 3.0 | 3.0 | 0.00 | 0.00 | 0.00 | 58 | 1007.1 |
| 20260508022004 | 47 | 275 | 2.0 | 5.0 | 0.00 | 0.00 | 0.00 | 56 | 1007.1 |
| 20260508021004 | 47 | 275 | 3.0 | 3.0 | 0.00 | 0.00 | 0.00 | 56 | 1007.1 |
| 20260508020504 | 47 | 275 | 2.0 | 6.0 | 0.00 | 0.00 | 0.00 | 56 | 1007.0 |
| 20260508020004 | 47 | 257 | 4.0 | 6.0 | 0.00 | 0.00 | 0.00 | 55 | 1007.1 |
| 20260508015504 | 48 | 255 | 2.0 | 5.0 | 0.00 | 0.00 | 0.00 | 55 | 1007.2 |
| 20260508015004 | 48 | 255 | 3.0 | 5.0 | 0.00 | 0.00 | 0.00 | 54 | 1007.5 |
| 20260508014504 | 49 | 255 | 3.0 | 3.0 | 0.00 | 0.00 | 0.00 | 54 | 1007.4 |
| 20260508014004 | 49 | 255 | 1.0 | 3.0 | 0.00 | 0.00 | 0.00 | 54 | 1007.3 |
| 20260508013504 | 49 | 255 | 1.0 | 2.0 | 0.00 | 0.00 | 0.00 | 53 | 1007.4 |
| 20260508013004 | 50 | 255 | 3.0 | 5.0 | 0.00 | 0.00 | 0.00 | 52 | 1007.2 |
| 20260508012504 | 50 | 255 | 3.0 | 7.0 | 0.00 | 0.00 | 0.00 | 50 | 1007.2 |
| 20260508012004 | 51 | 306 | 2.0 | 3.0 | 0.00 | 0.00 | 0.00 | 52 | 1007.0 |
| 20260508011503 | 51 | 352 | 1.0 | 3.0 | 0.00 | 0.00 | 0.00 | 52 | 1007.1 |
| 20260508010504 | 51 | 352 | 2.0 | 3.0 | 0.00 | 0.00 | 0.00 | 52 | 1007.1 |
| 20260508010004 | 51 | 352 | 3.0 | 5.0 | 0.00 | 0.00 | 0.00 | 53 | 1007.0 |
| 20260508005504 | 51 | 236 | 1.0 | 3.0 | 0.00 | 0.00 | 0.00 | 53 | 1006.8 |
| 20260508005004 | 51 | 225 | 5.0 | 10.0 | 0.00 | 0.00 | 0.00 | 52 | 1006.8 |
| 20260508004004 | 52 | 274 | 3.0 | 6.0 | 0.00 | 0.00 | 0.00 | 51 | 1006.9 |
| 20260508003504 | 52 | 299 | 2.0 | 5.0 | 0.00 | 0.01 | 0.00 | 53 | 1007.2 |
| 20260508002504 | 51 | 340 | 4.0 | 8.0 | 0.00 | 0.01 | 0.00 | 54 | 1007.5 |
| 20260508002004 | 51 | 314 | 5.0 | 8.0 | 0.00 | 0.01 | 0.00 | 53 | 1007.6 |
| 20260508001504 | 51 | 325 | 6.0 | 10.0 | 0.00 | 0.01 | 0.00 | 54 | 1007.5 |
| 20260508001004 | 50 | 306 | 6.0 | 14.0 | 0.00 | 0.01 | 0.00 | 54 | 1007.8 |
| 20260508000503 | 50 | 283 | 8.0 | 14.0 | 0.00 | 0.01 | 0.00 | 53 | 1008.1 |
| 20260508000004 | 50 | 308 | 9.0 | 17.0 | 0.00 | 0.01 | 0.00 | 52 | 1008.3 |
| 20260507235504 | 50 | 307 | 6.0 | 15.0 | 0.00 | 0.01 | 0.00 | 49 | 1007.9 |
| 20260507235004 | 51 | 313 | 6.0 | 12.0 | 0.00 | 0.01 | 0.00 | 49 | 1007.9 |
| 20260507234504 | 52 | 355 | 9.0 | 15.0 | 0.00 | 0.02 | 0.00 | 48 | 1007.7 |
| 20260507234004 | 52 | 345 | 9.0 | 15.0 | 0.00 | 0.02 | 0.00 | 47 | 1007.5 |
| 20260507233504 | 52 | 282 | 12.0 | 16.0 | 0.00 | 0.02 | 0.00 | 41 | 1007.5 |
| 20260507233004 | 52 | 290 | 7.0 | 17.0 | 0.00 | 0.02 | 0.00 | 40 | 1007.6 |
| 20260507232504 | 53 | 258 | 2.0 | 6.0 | 0.00 | 0.02 | 0.00 | 39 | 1007.7 |
| 20260507231504 | 53 | 269 | 5.0 | 14.0 | 0.00 | 0.03 | 0.00 | 37 | 1007.5 |
| 20260507230004 | 54 | 271 | 7.0 | 12.0 | 0.00 | 0.04 | 0.00 | 36 | 1007.5 |
| 20260507225504 | 55 | 289 | 6.0 | 16.0 | 0.00 | 0.04 | 0.00 | 36 | 1007.6 |
| 20260507224504 | 55 | 225 | 4.0 | 7.0 | 0.00 | 0.05 | 0.00 | 35 | 1007.6 |
| 20260507223505 | 53 | 268 | 9.0 | 20.0 | 0.00 | 0.06 | 0.00 | 37 | 1007.7 |
| 20260507222503 | 54 | 244 | 8.0 | 13.0 | 0.00 | 0.08 | 0.00 | 37 | 1007.6 |
| 20260507222004 | 54 | 264 | 3.0 | 13.0 | 0.00 | 0.09 | 0.00 | 37 | 1007.7 |
| 20260507221504 | 54 | 254 | 4.0 | 16.0 | 0.00 | 0.10 | 0.00 | 37 | 1007.7 |
| 20260507221004 | 53 | 247 | 7.0 | 13.0 | 0.00 | 0.11 | 0.00 | 37 | 1007.8 |
| 20260507220504 | 53 | 263 | 9.0 | 23.0 | 0.00 | 0.12 | 0.00 | 36 | 1007.8 |
| 20260507220004 | 53 | 253 | 6.0 | 13.0 | 0.00 | 0.14 | 0.00 | 36 | 1008.0 |
| 20260507215004 | 52 | 295 | 9.0 | 24.0 | 0.00 | 0.17 | 0.00 | 39 | 1008.6 |
| 20260507214503 | 52 | 252 | 10.0 | 20.0 | 0.00 | 0.18 | 0.00 | 37 | 1008.9 |
| 20260507214004 | 52 | 210 | 10.0 | 20.0 | 0.00 | 0.20 | 0.00 | 36 | 1008.7 |
| 20260507213004 | 52 | 233 | 9.0 | 15.0 | 0.00 | 0.24 | 0.00 | 37 | 1008.9 |
| 20260507212004 | 52 | 213 | 7.0 | 16.0 | 0.00 | 0.28 | 0.00 | 37 | 1009.0 |
| 20260507211504 | 53 | 240 | 9.0 | 13.0 | 0.00 | 0.29 | 0.00 | 35 | 1009.1 |
| 20260507211004 | 53 | 264 | 5.0 | 10.0 | 0.00 | 0.31 | 0.00 | 36 | 1009.3 |
| 20260507210504 | 53 | 244 | 7.0 | 20.0 | 0.00 | 0.33 | 0.00 | 36 | 1009.4 |
| 20260507210004 | 52 | 239 | 12.0 | 20.0 | 0.00 | 0.35 | 0.00 | 36 | 1009.5 |
| 20260507205504 | 53 | 238 | 12.0 | 20.0 | 0.00 | 0.38 | 0.00 | 36 | 1009.8 |
| 20260507205004 | 53 | 277 | 4.0 | 16.0 | 0.00 | 0.40 | 0.00 | 38 | 1010.2 |
| 20260507204505 | 53 | 250 | 8.0 | 18.0 | 0.00 | 0.42 | 0.00 | 37 | 1010.5 |
| 20260507204004 | 53 | 264 | 6.0 | 12.0 | 0.00 | 0.45 | 0.00 | 37 | 1010.4 |
| 20260507203504 | 52 | 260 | 7.0 | 18.0 | 0.00 | 0.46 | 0.00 | 37 | 1010.5 |